Flag for French Polynesia Weather past 2 weeks in Gambier Islands, French Polynesia

Now
80 °F

Passing clouds.


Feels Like: 84 °F
Forecast: 75 / 80 °F
Wind: 3 mph from Northeast

Location: Rikitea

Current Time: May 22, 2015 at 11:52:40 AM

Latest Report: May 22, 2015 at 11:00 AM


Visibility: 31 mi

Pressure: 30.09 "Hg

Humidity: 79%

Dew point: 73 °F

Location of Gambier IslandsLocation

Historic Weather in Gambier Islands — Graph

°F

Gambier Islands temperature yesterday

Maximum temperature yesterday: 81 °F (at 1:00 PM)
Minimum temperature yesterday: 72 °F (at 11:00 PM)
Average temperature yesterday: 75 °F

Past Weeks' High & Low Weather Summary

 TemperatureHumidityPressure
High82 °F (May 7, 11:00 AM)100% (May 8, 2:00 AM)30.12 "Hg (May 8, 2:00 AM)
Low70 °F (May 17, 12:00 AM)63% (May 10, 5:00 PM)29.84 "Hg (May 11, 4:00 PM)
Average76 °F91%29.99 "Hg
* Reported May 7 11:00 AM — May 22 10:00 AM, Gambier Islands, Weather by CustomWeather, © 2015

Note: Actual official high and low records may vary slightly from our data, if they occured in-between our weather recording intervals... More about our weather records

Advertising

Gambier Islands weather history for previous 24 hours

 ConditionsComfort  
Time TempWeatherWind HumidityBarometerVisibility
10:00 AM
Fri, May 22
78 °FScattered clouds.3 mph82%30.10 "Hg31 mi
9:00 AM79 °FPassing clouds.3 mph80%30.09 "Hg31 mi
8:00 AM76 °FPassing clouds.5 mph86%30.08 "Hg31 mi
7:00 AM74 °FPassing clouds.5 mph92%30.06 "Hg31 mi
6:00 AM72 °FPassing clouds.5 mph96%30.04 "Hg19 mi
5:00 AM72 °FMild.3 mph96%30.03 "HgN/A
4:00 AM72 °FMild.2 mph95%30.02 "HgN/A
3:00 AM71 °FMild.3 mph97%30.02 "HgN/A
2:00 AM71 °FMild.2 mph96%30.03 "HgN/A
1:00 AM72 °FMild.3 mph97%30.04 "HgN/A
12:00 AM72 °FMild.3 mph98%30.05 "HgN/A
11:00 PM
Thu, May 21
72 °FMild.2 mph97%30.06 "HgN/A
10:00 PM73 °FMild.3 mph96%30.06 "HgN/A
9:00 PM73 °FMild.3 mph95%30.06 "HgN/A
8:00 PM74 °FMild.5 mph94%30.04 "HgN/A
7:00 PM74 °FMild.7 mph93%30.01 "HgN/A
6:00 PM74 °FMild.6 mph92%29.99 "HgN/A
5:00 PM75 °FPassing clouds.6 mph84%29.98 "Hg25 mi
4:00 PM76 °FPassing clouds.8 mph86%29.97 "Hg31 mi
3:00 PM78 °FPassing clouds.5 mph82%29.98 "Hg31 mi
2:00 PM80 °FPassing clouds.5 mph77%29.99 "Hg31 mi
1:00 PM81 °FPassing clouds.5 mph77%30.01 "Hg31 mi
11:00 AM80 °FPassing clouds.7 mph77%30.06 "Hg31 mi
Weather by CustomWeather, © 2015

See weather overviewHow to use our weather pages